loading
|
Showing default

PERSEUS M1, 40039

Orbit data source: Space-Track

PERSEUS M1, 40039 is a payload satellite owned by Canopus Sys (CIS) in SSO that was launched on Thu, 19 Jun 2014 UTC via a DNEPR launch vehicle from the Orenburg, Russia (OREN). Payloads include a variety of satellites, spacecraft, and rockets equipped with specific instruments for various scientific and technological missions. These include communications satellites like Starlink; space stations such as the ISS; scientific satellites like the Hubble; Earth observation satellites from companies like Planet Labs, Umbra, and HawkEye 360; GPS; miniature CubeSats for education and research; and military/defense satellites.

Loading next visibility...
Loading greatness...
PERSEUS M1 details
Identifier
40039, 2014-033AF
Orbit
SSO
Last TLE update15 hours ago
Origin
Flag of CISCanopus Sys (CIS)
ManufacturerCanopus Sys
Mission statusOperational
MissionCommercial Communications
Bus & MotorCUBESAT 6U, Unknown motor
Mass~10 kg wet, ~10 kg dry
Launch date (UTC)
2014-06-19 (10 years ago)
Launch vehicle
DNEPR
Launch site
Orenburg, Russia (OREN)
Object type
Payload
Rocket body
Debris
Radar Cross Section0.12 m², Medium (>0.1 m² and < 1m²)

Expand to show TLE details & history

TLE from 15 hours ago
0 PERSEUS M1
1 40039U 14033AF  24261.35222560  .00011986  00000-0  12114-2 0  9993
2 40039  97.9064 188.3020 0010793 246.9927 113.0153 14.91134002555413
Epoch: 2024-09-17T08:27Z
Definitive object data (Epoch: 2024-09-17T08:27:12.291Z)
Latitude-0.00004°
Longitude64.73268°
Altitude600.385 km
Speed7.558 km/s
True Right ascension12h 33m 12s
True Declination0° 00' 00"
Sunlit
Object was in daylight at TLE epoch
Predictive object data (real-time)
Latitude62.12624°
Longitude50.21091°
Altitude612.533 km
Speed7.555 km/s
Apparent Right ascension06h 42m 07s
Apparent Declination23° 54' 03"
Sunlit
Object is in daylight
Predictive observer data (real-time)
Local Sidereal Time16:02:49
Azimuth322.438° NNW
Elevation-16.176°
Doppler factor1
Orbital elements
Apogee598.947 km
Perigee583.902 km
Semi-major axis6,969.562 km
Eccentricity0.0010793
Inclination97.9064°
RAAN188.302°
Arg. of periapsis246.9927°
True anomaly113.12907°
Mean anomaly113.0153°
Eccentric anomaly113.07219°
Mean motion3.73022 °/min
BSTAR0.0012114
Period96.51 mins
No data available

PERSEUS M1 Visibility forecast

Observer location: 39.9160978°, -105.1181434

PERSEUS M1 is not visible in the next 10 days
Span
Click to sort rows by Start time (UTC) header in descending order
Start Az.
Max El. time (UTC)
Max El. Az.
Max El.
End time (UTC)
End Az.